Regional Weather Roundup
Issued by NWS Albany, NY

Home | Current Version | Previous Version | Text Only | Print | Product List | Glossary On
Versions: 1 2 3 4 5 6 7 8 9 10 11 12 13 14 15 16 17 18 19 20 21 22 23 24 25 26 27 28 29 30 31 32 33 34 35 36 37 38 39 40 41 42 43 44 45 46 47 48
000
ASUS41 KALY 201310
RWRALY

NEW YORK STATE HOURLY WEATHER ROUNDUP
NATIONAL WEATHER SERVICE ALBANY NY
900 AM EDT SAT SEP 20 2014

NOTE: "FAIR" INDICATES FEW OR NO CLOUDS BELOW 12,000 FEET WITH NO
SIGNIFICANT WEATHER AND/OR NO OBSTRUCTIONS TO VISIBILITY.

NYZ032-033-038>043-046>054-057>066-NYZ062>081-201400-
EAST


CITY           SKY/WX    TMP DP  RH WIND       PRES   REMARKS
ALBANY         PTSUNNY   58  49  72 S14G23    30.24S
GLENS FALLS    CLOUDY    53  47  79 SW7       30.23S
POUGHKEEPSIE   SUNNY     62  52  69 VRB3      30.27F
MONTGOMERY     MOSUNNY   59  51  75 CALM      30.28F
WHITE PLAINS   MOSUNNY   61  55  81 SE5       30.30F
ISLIP          PTSUNNY   66  56  70 SE8       30.30S
NEW YORK CITY  PTSUNNY   65  55  70 CALM      30.30R
CENTRAL PARK   MOSUNNY   64  54  69 VRB3      30.32S
$$

NYZ005>009-017-018-044>046-055-056-201400-
CENTRAL


CITY           SKY/WX    TMP DP  RH WIND       PRES   REMARKS
FULTON         PTSUNNY   64  55  72 S12       30.10F
SYRACUSE       PTSUNNY   65  55  70 S14G25    30.12S
ROME           CLOUDY    62  54  74 S7        30.17F
ELMIRA         CLOUDY    64  57  78 SW13G22   30.17S
BINGHAMTON     CLOUDY    58  54  86 S13       30.22R
MONTICELLO     CLOUDY    54  52  94 S6        30.29S
$$

NYZ026>034-041>043-201400-
NORTH


CITY           SKY/WX    TMP DP  RH WIND       PRES   REMARKS
WATERTOWN      CLOUDY    65  52  62 S16G29    30.06F
FORT DRUM      NOT AVBL
MASSENA        PTSUNNY   63  54  72 S14G25    30.03F
SARANAC LAKE   CLOUDY    54  49  83 SW17      30.10F
PLATTSBURGH    CLOUDY    54  46  74 S14G22    30.13F
$$

NYZ001>004-010>016-019>021-201400-
WEST


CITY           SKY/WX    TMP DP  RH WIND       PRES   REMARKS
NIAGARA FALLS  PTSUNNY   66  57  72 SW20      30.03R
BUFFALO        PTSUNNY   66  55  67 SW21G31   30.03F
DUNKIRK        MOSUNNY   65  56  72 S21G29    30.05F
JAMESTOWN      CLOUDY    61  54  77 S12G20    30.12F
WELLSVILLE     CLOUDY    62  54  74 S15G23    30.18S
ROCHESTER      PTSUNNY   64  56  75 SW13G20   30.06F
PENN YAN       MOSUNNY   65  56  72 S15G25    30.14R
$$

             KEY
       WCI = WIND CHILL INDEX
       VSB = VISIBILITY
       HX  = HEAT INDEX
$$


USA.gov is the U.S. government's official web portal to all federal, state and local government web resources and services.